Home > Weather > Tadjoura > Past weeks

Flag for Djibouti Past Weather in Tadjoura, Djibouti — Yesterday and Last 2 Weeks

Now
100 °F

Clear.


Feels Like: 117 °F
Forecast: 94 / 106 °F
Wind: 12 mph from Northeast

Location: Djibouti Ambouli

Current Time: Jun 27, 2016 at 9:46:05 PM

Latest Report: Jun 27, 2016 at 8:00 PM


Visibility: 10 mi

Pressure: 29.56 "Hg

Humidity: 47%

Dew Point: 77 °F

Location of TadjouraLocation

Past Weather in Tadjoura — Graph

°F

Tadjoura Temperature Yesterday

Maximum temperature yesterday: 109 °F (at 12:00 PM)
Minimum temperature yesterday: 91 °F (at 6:00 AM)
Average temperature yesterday: 99 °F

High & Low Weather Summary for the Past Weeks

 TemperatureHumidityPressure
High115 °F (Jun 27, 2:00 PM)79% (Jun 14, 10:00 PM)29.83 "Hg (Jun 14, 10:00 PM)
Low86 °F (Jun 13, 6:00 AM)18% (Jun 17, 12:00 PM)29.50 "Hg (Jun 24, 3:00 PM)
Average99 °F46%29.65 "Hg
* Reported Jun 13 5:00 AM — Jun 27 8:00 PM, Tadjoura, Weather by CustomWeather, © 2016

Note: Actual official high and low records may vary slightly from our data, if they occured in-between our weather recording intervals... More about our weather records

Advertising

Tadjoura Weather History for the Previous 24 Hours

Scroll right to see more
 ConditionsComfort  
Time TempWeatherWind HumidityBarometerVisibility
8:00 PM
Mon, Jun 27
100 °FClear.12 mph47%29.56 "Hg10 mi
6:00 PM100 °FSunny.12 mph45%29.53 "Hg10 mi
5:00 PM97 °FSunny.13 mph53%29.50 "Hg10 mi
4:00 PM99 °FSunny.13 mph44%29.50 "Hg10 mi
2:00 PM115 °FHaze.12 mph21%29.56 "HgN/A
10:00 AM108 °FExtremely hot.15 mph26%29.65 "Hg5 mi
9:00 AM106 °FHaze.12 mph32%29.65 "Hg5 mi
8:00 AM102 °FPartly sunny.12 mph37%29.68 "HgN/A
7:00 AM97 °FPartly sunny.10 mph50%29.65 "Hg5 mi
6:00 AM95 °FPartly sunny.7 mph53%29.65 "Hg5 mi
4:00 AM97 °FClear.3 mph50%29.65 "Hg5 mi
2:00 AM99 °FClear.8 mph50%29.65 "Hg5 mi
1:00 AM97 °FClear.7 mph53%29.65 "Hg5 mi
12:00 AM97 °FClear.3 mph60%29.65 "Hg5 mi
11:00 PM
Sun, Jun 26
97 °FClear.6 mph56%29.65 "Hg5 mi
10:00 PM97 °FClear.6 mph56%29.65 "Hg5 mi
Weather by CustomWeather, © 2016

See weather overviewHow to use our weather pages